| time (UTC) | temp F | wind direction | speed knots | gust knots | rain 1hr in | rain 24hr in | rain mn in | humidity % | barometer mb |
| 20260505101746 | 52 | 179 | 0.0 | 0.0 | 0.00 | 0.00 | 0.00 | 96 | 1022.5 |
| 20260505101241 | 52 | 179 | 0.0 | 0.0 | 0.00 | 0.00 | 0.00 | 96 | 1022.4 |
| 20260505100738 | 52 | 179 | 0.0 | 0.9 | 0.00 | 0.00 | 0.00 | 96 | 1022.6 |
| 20260505100235 | 52 | 179 | 0.0 | 0.0 | 0.00 | 0.00 | 0.00 | 96 | 1022.5 |
| 20260505095730 | 52 | 179 | 0.0 | 0.0 | 0.00 | 0.00 | 0.00 | 96 | 1022.5 |
| 20260505095228 | 52 | 179 | 0.0 | 0.0 | 0.00 | 0.00 | 0.00 | 95 | 1022.4 |
| 20260505094723 | 52 | 179 | 0.0 | 0.0 | 0.00 | 0.00 | 0.00 | 95 | 1022.4 |
| 20260505094220 | 52 | 179 | 0.0 | 0.0 | 0.00 | 0.00 | 0.00 | 95 | 1022.4 |
| 20260505093716 | 52 | 179 | 0.0 | 0.0 | 0.00 | 0.00 | 0.00 | 95 | 1022.4 |
| 20260505093214 | 52 | 179 | 0.0 | 0.0 | 0.00 | 0.00 | 0.00 | 95 | 1022.2 |
| 20260505092710 | 52 | 179 | 0.0 | 0.0 | 0.00 | 0.00 | 0.00 | 95 | 1022.3 |
| 20260505092209 | 52 | 179 | 0.0 | 0.0 | 0.00 | 0.00 | 0.00 | 95 | 1022.4 |
| 20260505091706 | 52 | 179 | 0.0 | 0.0 | 0.00 | 0.00 | 0.00 | 95 | 1022.1 |
| 20260505091204 | 53 | 179 | 0.0 | 0.0 | 0.00 | 0.00 | 0.00 | 94 | 1022.1 |
| 20260505090701 | 53 | 179 | 0.0 | 0.0 | 0.00 | 0.00 | 0.00 | 94 | 1022.2 |
| 20260505090159 | 53 | 179 | 0.0 | 0.0 | 0.00 | 0.00 | 0.00 | 94 | 1022.1 |
| 20260505085656 | 53 | 179 | 0.0 | 0.0 | 0.00 | 0.00 | 0.00 | 94 | 1022.3 |
| 20260505085155 | 53 | 179 | 0.0 | 0.9 | 0.00 | 0.00 | 0.00 | 94 | 1022.0 |
| 20260505084652 | 53 | 179 | 0.0 | 0.9 | 0.00 | 0.00 | 0.00 | 94 | 1022.3 |
| 20260505084151 | 54 | 179 | 0.9 | 0.9 | 0.00 | 0.00 | 0.00 | 93 | 1022.1 |
| 20260505083648 | 54 | 179 | 0.0 | 0.0 | 0.00 | 0.00 | 0.00 | 93 | 1022.3 |
| 20260505083144 | 54 | 179 | 0.0 | 0.0 | 0.00 | 0.00 | 0.00 | 93 | 1022.2 |
| 20260505082640 | 54 | 179 | 0.0 | 0.0 | 0.00 | 0.00 | 0.00 | 93 | 1022.0 |
| 20260505082137 | 54 | 179 | 0.0 | 0.0 | 0.00 | 0.00 | 0.00 | 92 | 1022.1 |
| 20260505081633 | 54 | 179 | 0.0 | 0.0 | 0.00 | 0.00 | 0.00 | 92 | 1022.2 |
| 20260505081131 | 54 | 179 | 0.0 | 0.0 | 0.00 | 0.00 | 0.00 | 92 | 1022.0 |
| 20260505080627 | 54 | 179 | 0.0 | 0.0 | 0.00 | 0.00 | 0.00 | 92 | 1021.9 |
| 20260505080123 | 54 | 179 | 0.0 | 0.0 | 0.00 | 0.00 | 0.00 | 91 | 1021.8 |
| 20260505075620 | 55 | 179 | 0.0 | 0.0 | 0.00 | 0.00 | 0.00 | 91 | 1021.9 |
| 20260505075116 | 55 | 179 | 0.0 | 0.0 | 0.00 | 0.00 | 0.00 | 90 | 1021.9 |
| 20260505074613 | 55 | 179 | 0.9 | 0.9 | 0.00 | 0.00 | 0.00 | 90 | 1022.1 |
| 20260505074110 | 54 | 179 | 0.0 | 0.0 | 0.00 | 0.00 | 0.00 | 89 | 1022.0 |
| 20260505073608 | 55 | 179 | 0.0 | 0.0 | 0.00 | 0.00 | 0.00 | 89 | 1021.9 |
| 20260505073106 | 55 | 179 | 0.0 | 0.0 | 0.00 | 0.00 | 0.00 | 88 | 1022.0 |
| 20260505072607 | 55 | 179 | 0.0 | 0.0 | 0.00 | 0.00 | 0.00 | 88 | 1022.1 |
| 20260505072103 | 55 | 179 | 0.0 | 0.0 | 0.00 | 0.00 | 0.00 | 87 | 1021.8 |
| 20260505071559 | 56 | 179 | 0.0 | 0.0 | 0.00 | 0.00 | 0.00 | 87 | 1022.3 |
| 20260505071057 | 57 | 179 | 0.0 | 0.9 | 0.00 | 0.00 | 0.00 | 86 | 1021.8 |
| 20260505070554 | 57 | 179 | 0.0 | 0.9 | 0.00 | 0.00 | 0.00 | 86 | 1022.0 |
| 20260505070050 | 57 | 180 | 0.0 | 0.9 | 0.00 | 0.00 | 0.00 | 86 | 1022.2 |
| 20260505065546 | 57 | 180 | 0.0 | 0.9 | 0.00 | 0.00 | 0.00 | 86 | 1021.9 |
| 20260505065043 | 57 | 180 | 0.9 | 1.7 | 0.00 | 0.00 | 0.00 | 86 | 1022.2 |
| 20260505064540 | 57 | 179 | 0.9 | 0.9 | 0.00 | 0.00 | 0.00 | 86 | 1022.0 |
| 20260505064038 | 58 | 179 | 0.0 | 0.9 | 0.00 | 0.00 | 0.00 | 85 | 1022.1 |
| 20260505063535 | 58 | 180 | 0.0 | 0.9 | 0.00 | 0.00 | 0.00 | 85 | 1022.1 |
| 20260505063031 | 58 | 180 | 0.0 | 0.9 | 0.00 | 0.00 | 0.00 | 85 | 1022.3 |
| 20260505062528 | 57 | 176 | 0.9 | 0.9 | 0.00 | 0.00 | 0.00 | 86 | 1022.2 |
| 20260505062025 | 57 | 165 | 0.9 | 0.9 | 0.00 | 0.00 | 0.00 | 85 | 1022.2 |
| 20260505061523 | 57 | 165 | 0.9 | 0.9 | 0.00 | 0.00 | 0.00 | 84 | 1022.4 |
| 20260505061020 | 57 | 166 | 0.0 | 0.0 | 0.00 | 0.00 | 0.00 | 83 | 1022.4 |
| 20260505060518 | 58 | 166 | 0.0 | 0.0 | 0.00 | 0.00 | 0.00 | 82 | 1022.6 |
| 20260505060014 | 59 | 166 | 0.0 | 0.0 | 0.00 | 0.00 | 0.00 | 81 | 1022.4 |
| 20260505055509 | 59 | 166 | 0.0 | 0.0 | 0.00 | 0.00 | 0.00 | 79 | 1022.5 |
| 20260505055006 | 59 | 167 | 0.0 | 0.9 | 0.00 | 0.00 | 0.00 | 79 | 1022.6 |
| 20260505054504 | 60 | 176 | 0.9 | 1.7 | 0.00 | 0.00 | 0.00 | 78 | 1022.7 |
| 20260505054001 | 60 | 169 | 1.7 | 1.7 | 0.00 | 0.00 | 0.00 | 78 | 1022.8 |
| 20260505053458 | 60 | 175 | 0.9 | 0.9 | 0.00 | 0.00 | 0.00 | 77 | 1022.8 |
| 20260505052955 | 61 | 190 | 0.9 | 1.7 | 0.00 | 0.00 | 0.00 | 76 | 1022.8 |
| 20260505052452 | 61 | 184 | 0.9 | 1.7 | 0.00 | 0.00 | 0.00 | 76 | 1022.6 |
| 20260505051949 | 61 | 181 | 1.7 | 1.7 | 0.00 | 0.00 | 0.00 | 75 | 1022.8 |
| 20260505051446 | 62 | 190 | 2.6 | 4.3 | 0.00 | 0.00 | 0.00 | 74 | 1022.8 |
| 20260505050944 | 62 | 217 | 3.5 | 4.3 | 0.00 | 0.00 | 0.00 | 74 | 1022.9 |
| 20260505050442 | 62 | 202 | 1.7 | 4.3 | 0.00 | 0.00 | 0.00 | 73 | 1022.9 |
| 20260505041410 | 63 | 178 | 2.6 | 5.2 | 0.00 | 0.00 | 0.00 | 70 | 1023.1 |
| 20260505040907 | 63 | 171 | 3.5 | 4.3 | 0.00 | 0.00 | 0.00 | 70 | 1023.1 |
| 20260505040405 | 64 | 175 | 4.3 | 6.1 | 0.00 | 0.00 | 0.00 | 69 | 1022.9 |
| 20260505035901 | 63 | 168 | 3.5 | 5.2 | 0.00 | 0.00 | 0.00 | 70 | 1022.9 |
| 20260505035357 | 63 | 184 | 3.5 | 4.3 | 0.00 | 0.00 | 0.00 | 70 | 1023.0 |
| 20260505034855 | 64 | 166 | 2.6 | 5.2 | 0.00 | 0.00 | 0.00 | 69 | 1022.9 |
| 20260505034351 | 64 | 175 | 6.1 | 7.0 | 0.00 | 0.00 | 0.00 | 68 | 1023.0 |
| 20260505033848 | 64 | 162 | 4.3 | 5.2 | 0.00 | 0.00 | 0.00 | 68 | 1022.9 |
| 20260505033345 | 64 | 184 | 4.3 | 6.1 | 0.00 | 0.00 | 0.00 | 68 | 1023.0 |
| 20260505032843 | 64 | 195 | 4.3 | 7.0 | 0.00 | 0.00 | 0.00 | 67 | 1023.0 |
| 20260505032339 | 64 | 184 | 5.2 | 7.0 | 0.00 | 0.00 | 0.00 | 67 | 1023.1 |
| 20260505031836 | 64 | 164 | 4.3 | 5.2 | 0.00 | 0.00 | 0.00 | 66 | 1023.0 |
| 20260505031333 | 65 | 176 | 4.3 | 5.2 | 0.00 | 0.00 | 0.00 | 66 | 1023.0 |
| 20260505030830 | 65 | 178 | 4.3 | 6.1 | 0.00 | 0.00 | 0.00 | 66 | 1022.9 |
| 20260505030326 | 65 | 174 | 3.5 | 5.2 | 0.00 | 0.00 | 0.00 | 65 | 1022.9 |
| 20260505025822 | 65 | 163 | 3.5 | 5.2 | 0.00 | 0.00 | 0.00 | 65 | 1022.8 |
| 20260505025320 | 65 | 187 | 4.3 | 7.0 | 0.00 | 0.00 | 0.00 | 65 | 1022.9 |
| 20260505024818 | 65 | 162 | 5.2 | 7.0 | 0.00 | 0.00 | 0.00 | 64 | 1023.2 |
| 20260505024315 | 65 | 176 | 5.2 | 6.1 | 0.00 | 0.00 | 0.00 | 64 | 1023.0 |
| 20260505023812 | 66 | 168 | 4.3 | 7.0 | 0.00 | 0.00 | 0.00 | 63 | 1023.0 |
| 20260505023309 | 66 | 168 | 5.2 | 6.1 | 0.00 | 0.00 | 0.00 | 63 | 1023.0 |
| 20260505022806 | 66 | 167 | 5.2 | 6.1 | 0.00 | 0.00 | 0.00 | 62 | 1022.7 |
| 20260505022304 | 66 | 185 | 4.3 | 6.1 | 0.00 | 0.00 | 0.00 | 61 | 1022.6 |
| 20260505021800 | 66 | 194 | 3.5 | 5.2 | 0.00 | 0.00 | 0.00 | 61 | 1022.6 |
| 20260505021257 | 66 | 158 | 4.3 | 6.1 | 0.00 | 0.00 | 0.00 | 60 | 1022.6 |
| 20260505020753 | 67 | 178 | 6.1 | 7.0 | 0.00 | 0.00 | 0.00 | 59 | 1022.7 |
| 20260505020248 | 67 | 171 | 6.1 | 7.0 | 0.00 | 0.00 | 0.00 | 58 | 1022.6 |
| 20260505015746 | 67 | 182 | 5.2 | 8.7 | 0.00 | 0.00 | 0.00 | 57 | 1022.7 |
| 20260505015242 | 68 | 168 | 4.3 | 8.7 | 0.00 | 0.00 | 0.00 | 57 | 1022.8 |
| 20260505014739 | 67 | 157 | 7.0 | 8.7 | 0.00 | 0.00 | 0.00 | 56 | 1022.5 |
| 20260505014237 | 68 | 166 | 3.5 | 7.8 | 0.00 | 0.00 | 0.00 | 56 | 1022.4 |
| 20260505013733 | 68 | 150 | 6.1 | 9.6 | 0.00 | 0.00 | 0.00 | 55 | 1022.2 |
| 20260505013231 | 68 | 159 | 5.2 | 8.7 | 0.00 | 0.00 | 0.00 | 55 | 1022.2 |
| 20260505012729 | 68 | 169 | 4.3 | 7.0 | 0.00 | 0.00 | 0.00 | 54 | 1022.2 |
| 20260505012226 | 69 | 158 | 5.2 | 8.7 | 0.00 | 0.00 | 0.00 | 54 | 1022.2 |
| 20260505011721 | 69 | 157 | 6.1 | 9.6 | 0.00 | 0.00 | 0.00 | 53 | 1022.2 |
| 20260505011219 | 69 | 177 | 5.2 | 6.1 | 0.00 | 0.00 | 0.00 | 53 | 1022.0 |
| 20260505010714 | 69 | 173 | 5.2 | 8.7 | 0.00 | 0.00 | 0.00 | 53 | 1022.0 |
| 20260505010211 | 69 | 160 | 7.0 | 7.8 | 0.00 | 0.00 | 0.00 | 53 | 1021.8 |
| 20260505005707 | 69 | 172 | 6.1 | 7.0 | 0.00 | 0.00 | 0.00 | 52 | 1021.8 |
| 20260505005205 | 70 | 171 | 4.3 | 5.2 | 0.00 | 0.00 | 0.00 | 52 | 1021.7 |
| 20260505004702 | 70 | 165 | 7.8 | 11.3 | 0.00 | 0.00 | 0.00 | 51 | 1021.4 |
| 20260505004158 | 70 | 182 | 6.1 | 7.0 | 0.00 | 0.00 | 0.00 | 51 | 1021.6 |
| 20260505003655 | 71 | 160 | 5.2 | 9.6 | 0.00 | 0.00 | 0.00 | 51 | 1021.8 |
| 20260505003153 | 71 | 159 | 3.5 | 7.0 | 0.00 | 0.00 | 0.00 | 51 | 1021.8 |
| 20260505002649 | 71 | 170 | 6.1 | 7.8 | 0.00 | 0.00 | 0.00 | 50 | 1021.4 |
| 20260505002147 | 72 | 146 | 6.1 | 8.7 | 0.00 | 0.00 | 0.00 | 50 | 1021.5 |
| 20260505001643 | 72 | 173 | 8.7 | 9.6 | 0.00 | 0.00 | 0.00 | 50 | 1021.7 |
| 20260505001141 | 72 | 168 | 4.3 | 8.7 | 0.00 | 0.00 | 0.00 | 50 | 1021.7 |
| 20260505000638 | 72 | 164 | 6.1 | 9.6 | 0.00 | 0.00 | 0.00 | 50 | 1021.4 |
| 20260505000136 | 73 | 141 | 5.2 | 7.8 | 0.00 | 0.00 | 0.00 | 49 | 1021.4 |
| 20260504235632 | 73 | 169 | 6.1 | 7.8 | 0.00 | 0.00 | 0.00 | 48 | 1021.4 |
| 20260504235129 | 74 | 176 | 6.1 | 9.6 | 0.00 | 0.00 | 0.00 | 48 | 1021.3 |
| 20260504234626 | 74 | 178 | 7.8 | 9.6 | 0.00 | 0.00 | 0.00 | 47 | 1021.3 |
| 20260504234123 | 75 | 156 | 5.2 | 9.6 | 0.00 | 0.00 | 0.00 | 47 | 1021.2 |
| 20260504233619 | 75 | 166 | 6.1 | 9.6 | 0.00 | 0.00 | 0.00 | 45 | 1021.1 |
| 20260504233115 | 76 | 172 | 8.7 | 12.2 | 0.00 | 0.00 | 0.00 | 44 | 1021.0 |
| 20260504232613 | 77 | 194 | 5.2 | 7.8 | 0.00 | 0.00 | 0.00 | 39 | 1021.0 |
| 20260504232110 | 77 | 173 | 4.3 | 7.0 | 0.00 | 0.00 | 0.00 | 38 | 1021.0 |
| 20260504231606 | 77 | 219 | 6.1 | 7.8 | 0.00 | 0.00 | 0.00 | 37 | 1020.7 |
| 20260504231102 | 78 | 191 | 6.1 | 7.0 | 0.00 | 0.00 | 0.00 | 37 | 1020.7 |
| 20260504230558 | 78 | 179 | 2.6 | 2.6 | 0.00 | 0.00 | 0.00 | 35 | 1020.9 |
| 20260504230058 | 78 | 220 | 3.5 | 4.3 | 0.00 | 0.00 | 0.00 | 33 | 1020.8 |
| 20260504225555 | 78 | 201 | 2.6 | 4.3 | 0.00 | 0.00 | 0.00 | 34 | 1020.7 |
| 20260504225052 | 78 | 195 | 2.6 | 5.2 | 0.00 | 0.00 | 0.00 | 34 | 1020.6 |
| 20260504224548 | 78 | 183 | 1.7 | 5.2 | 0.00 | 0.00 | 0.00 | 34 | 1020.7 |
| 20260504224046 | 79 | 250 | 2.6 | 4.3 | 0.00 | 0.00 | 0.00 | 33 | 1020.8 |
| 20260504223542 | 79 | 189 | 1.7 | 2.6 | 0.00 | 0.00 | 0.00 | 32 | 1021.0 |
| 20260504223038 | 79 | 208 | 3.5 | 5.2 | 0.00 | 0.00 | 0.00 | 31 | 1021.0 |
| 20260504222535 | 78 | 184 | 1.7 | 5.2 | 0.00 | 0.00 | 0.00 | 32 | 1021.1 |
| 20260504222032 | 79 | 238 | 4.3 | 7.0 | 0.00 | 0.00 | 0.00 | 32 | 1021.2 |
| 20260504221530 | 79 | 226 | 2.6 | 6.1 | 0.00 | 0.00 | 0.00 | 33 | 1021.0 |
| 20260504221026 | 80 | 185 | 7.0 | 7.8 | 0.00 | 0.00 | 0.00 | 32 | 1021.1 |
| 20260504220523 | 80 | 268 | 3.5 | 5.2 | 0.00 | 0.00 | 0.00 | 32 | 1021.0 |
| 20260504220020 | 79 | 184 | 7.0 | 8.7 | 0.00 | 0.00 | 0.00 | 32 | 1021.1 |
| 20260504215516 | 80 | 193 | 7.0 | 7.8 | 0.00 | 0.00 | 0.00 | 31 | 1021.1 |
| 20260504215014 | 79 | 191 | 3.5 | 6.1 | 0.00 | 0.00 | 0.00 | 32 | 1020.8 |
| 20260504214510 | 79 | 196 | 2.6 | 9.6 | 0.00 | 0.00 | 0.00 | 33 | 1021.1 |
| 20260504214006 | 80 | 161 | 4.3 | 7.8 | 0.00 | 0.00 | 0.00 | 32 | 1021.0 |
| 20260504213502 | 80 | 194 | 3.5 | 4.3 | 0.00 | 0.00 | 0.00 | 33 | 1021.0 |
| 20260504213000 | 79 | 180 | 3.5 | 5.2 | 0.00 | 0.00 | 0.00 | 32 | 1020.9 |
| 20260504212455 | 81 | 193 | 6.1 | 7.0 | 0.00 | 0.00 | 0.00 | 30 | 1021.0 |
| 20260504211953 | 80 | 179 | 6.1 | 7.8 | 0.00 | 0.00 | 0.00 | 31 | 1021.1 |
| 20260504211449 | 81 | 187 | 7.0 | 7.0 | 0.00 | 0.00 | 0.00 | 31 | 1021.3 |
| 20260504210947 | 80 | 205 | 7.8 | 12.2 | 0.00 | 0.00 | 0.00 | 30 | 1021.1 |
| 20260504210444 | 80 | 201 | 5.2 | 7.0 | 0.00 | 0.00 | 0.00 | 30 | 1021.1 |
| 20260504205941 | 80 | 177 | 9.6 | 9.6 | 0.00 | 0.00 | 0.00 | 30 | 1021.0 |
| 20260504205438 | 80 | 123 | 3.5 | 8.7 | 0.00 | 0.00 | 0.00 | 32 | 1021.3 |
| 20260504204936 | 80 | 92 | 0.9 | 4.3 | 0.00 | 0.00 | 0.00 | 33 | 1021.0 |
| 20260504204434 | 80 | 193 | 2.6 | 7.0 | 0.00 | 0.00 | 0.00 | 32 | 1021.1 |
| 20260504203933 | 80 | 221 | 6.1 | 7.0 | 0.00 | 0.00 | 0.00 | 32 | 1021.1 |
| 20260504203431 | 81 | 202 | 3.5 | 5.2 | 0.00 | 0.00 | 0.00 | 31 | 1021.2 |
| 20260504202926 | 79 | 115 | 2.6 | 5.2 | 0.00 | 0.00 | 0.00 | 32 | 1021.3 |
| 20260504202423 | 80 | 337 | 0.9 | 7.0 | 0.00 | 0.00 | 0.00 | 32 | 1021.4 |
| 20260504201920 | 80 | 215 | 2.6 | 5.2 | 0.00 | 0.00 | 0.00 | 31 | 1021.5 |
| 20260504201417 | 80 | 122 | 1.7 | 2.6 | 0.00 | 0.00 | 0.00 | 32 | 1021.7 |
| 20260504200915 | 80 | 234 | 5.2 | 7.0 | 0.00 | 0.00 | 0.00 | 31 | 1021.8 |
| 20260504200411 | 79 | 155 | 7.8 | 8.7 | 0.00 | 0.00 | 0.00 | 32 | 1021.8 |
| 20260504195908 | 79 | 201 | 4.3 | 5.2 | 0.00 | 0.00 | 0.00 | 32 | 1021.9 |
| 20260504195404 | 79 | 189 | 2.6 | 5.2 | 0.00 | 0.00 | 0.00 | 32 | 1021.9 |
| 20260504194900 | 78 | 197 | 4.3 | 5.2 | 0.00 | 0.00 | 0.00 | 32 | 1021.8 |
| 20260504194356 | 79 | 204 | 8.7 | 9.6 | 0.00 | 0.00 | 0.00 | 32 | 1022.1 |
| 20260504193852 | 79 | 147 | 0.0 | 0.9 | 0.00 | 0.00 | 0.00 | 31 | 1022.2 |
| 20260504193350 | 79 | 289 | 2.6 | 2.6 | 0.00 | 0.00 | 0.00 | 32 | 1022.0 |
| 20260504192849 | 78 | 232 | 1.7 | 7.0 | 0.00 | 0.00 | 0.00 | 32 | 1022.3 |
| 20260504192346 | 78 | 189 | 2.6 | 6.1 | 0.00 | 0.00 | 0.00 | 32 | 1022.3 |
| 20260504191844 | 79 | 246 | 6.1 | 7.8 | 0.00 | 0.00 | 0.00 | 33 | 1022.2 |
| 20260504191342 | 79 | 231 | 4.3 | 5.2 | 0.00 | 0.00 | 0.00 | 31 | 1022.2 |
| 20260504190837 | 79 | 236 | 3.5 | 5.2 | 0.00 | 0.00 | 0.00 | 31 | 1022.3 |
| 20260504190333 | 79 | 156 | 3.5 | 6.1 | 0.00 | 0.00 | 0.00 | 32 | 1022.4 |
| 20260504185830 | 79 | 201 | 1.7 | 4.3 | 0.00 | 0.00 | 0.00 | 33 | 1022.6 |
| 20260504185327 | 78 | 221 | 3.5 | 4.3 | 0.00 | 0.00 | 0.00 | 33 | 1022.6 |
| 20260504184823 | 78 | 172 | 6.1 | 7.8 | 0.00 | 0.00 | 0.00 | 34 | 1022.7 |
| 20260504184319 | 78 | 96 | 0.9 | 7.0 | 0.00 | 0.00 | 0.00 | 33 | 1022.9 |
| 20260504183815 | 77 | 184 | 6.1 | 7.0 | 0.00 | 0.00 | 0.00 | 33 | 1022.9 |
| 20260504183312 | 78 | 173 | 2.6 | 7.8 | 0.00 | 0.00 | 0.00 | 33 | 1022.9 |
| 20260504182810 | 78 | 182 | 0.9 | 0.9 | 0.00 | 0.00 | 0.00 | 32 | 1022.9 |
| 20260504182307 | 77 | 144 | 0.0 | 1.7 | 0.00 | 0.00 | 0.00 | 32 | 1022.9 |
| 20260504181804 | 77 | 220 | 4.3 | 5.2 | 0.00 | 0.00 | 0.00 | 32 | 1022.8 |
| 20260504181301 | 78 | 232 | 4.3 | 7.0 | 0.00 | 0.00 | 0.00 | 32 | 1023.0 |
| 20260504180801 | 78 | 225 | 4.3 | 7.0 | 0.00 | 0.00 | 0.00 | 32 | 1022.9 |
| 20260504180259 | 78 | 159 | 0.0 | 2.6 | 0.00 | 0.00 | 0.00 | 34 | 1023.0 |
| 20260504175756 | 78 | 218 | 1.7 | 2.6 | 0.00 | 0.00 | 0.00 | 35 | 1022.9 |
| 20260504175253 | 77 | 354 | 3.5 | 4.3 | 0.00 | 0.00 | 0.00 | 34 | 1022.9 |
| 20260504174751 | 76 | 72 | 1.7 | 2.6 | 0.00 | 0.00 | 0.00 | 34 | 1023.2 |
| 20260504174248 | 77 | 280 | 4.3 | 5.2 | 0.00 | 0.00 | 0.00 | 33 | 1023.2 |
| 20260504173745 | 77 | 266 | 2.6 | 4.3 | 0.00 | 0.00 | 0.00 | 35 | 1023.2 |
| 20260504173242 | 77 | 182 | 1.7 | 6.1 | 0.00 | 0.00 | 0.00 | 34 | 1023.3 |
| 20260504172738 | 77 | 166 | 0.9 | 2.6 | 0.00 | 0.00 | 0.00 | 34 | 1023.1 |
| 20260504172235 | 76 | 44 | 2.6 | 7.0 | 0.00 | 0.00 | 0.00 | 32 | 1023.4 |
| 20260504171731 | 76 | 199 | 0.9 | 8.7 | 0.00 | 0.00 | 0.00 | 34 | 1023.5 |
| 20260504171228 | 76 | 355 | 4.3 | 5.2 | 0.00 | 0.00 | 0.00 | 35 | 1023.5 |
| 20260504170725 | 76 | 121 | 2.6 | 4.3 | 0.00 | 0.00 | 0.00 | 33 | 1023.4 |
| 20260504170223 | 75 | 94 | 1.7 | 2.6 | 0.00 | 0.00 | 0.00 | 32 | 1023.6 |
| 20260504160141 | 75 | 152 | 0.9 | 1.7 | 0.00 | 0.00 | 0.00 | 35 | 1024.2 |
| 20260504151108 | 73 | 291 | 1.7 | 2.6 | 0.00 | 0.00 | 0.00 | 41 | 1024.6 |
| 20260504150606 | 72 | 170 | 0.9 | 1.7 | 0.00 | 0.00 | 0.00 | 41 | 1024.8 |
| 20260504141031 | 68 | 110 | 0.9 | 2.6 | 0.00 | 0.00 | 0.00 | 60 | 1024.9 |
| 20260504140528 | 68 | 156 | 1.7 | 2.6 | 0.00 | 0.00 | 0.00 | 63 | 1024.7 |
| 20260504130452 | 61 | 153 | 1.7 | 2.6 | 0.00 | 0.00 | 0.00 | 83 | 1024.8 |
| 20260504110339 | 47 | 131 | 0.0 | 0.9 | 0.00 | 0.00 | 0.00 | 98 | 1024.4 |